Weather History for Saginaw, MI

Change the Weather History Date:

Tuesday, December 4, 2012

  Actual Average Record
Temperature  
Mean Temperature 52 °F 31 °F  
Max Temperature 64 °F 37 °F 64 °F (2012)
Min Temperature 37 °F 25 °F 5 °F (2002)
Degree Days  
Heating Degree Days 14    
Month to date heating degree days  
Since 1 July heating degree days  
Cooling Degree Days 0    
Month to date cooling degree days  
Year to date cooling degree days  
Growing Degree Days 2 (Base 50)    
Moisture  
Dew Point 41 °F    
Average Humidity 68    
Maximum Humidity 90    
Minimum Humidity 53    
Precipitation  
Precipitation 0.01 in 0.07 in 0.16 in (1998)
Month to date precipitation 0.28  
Year to date precipitation 29.96  
Snow  
Snow 0.00 in - - ()
Month to date snowfall  
Since 1 July snowfall  
Snow Depth -    
Sea Level Pressure  
Sea Level Pressure 29.94 in    
Wind  
Wind Speed 16 mph (WSW)    
Max Wind Speed 24 mph    
Max Gust Speed 31 mph    
Visibility 10 miles    
Events Rain    
T = Trace of Precipitation, MM = Missing Value Source: NWS Daily Summary

Daily Weather History Graph

Daily Weather History Graph

Search for Another Location

Airport:

Trip Planner

Search our weather history database for the weather conditions in past years. The results will help you decide how hot, cold, wet, or windy it might be!

Date:

Astronomy

Dec. 04, 2012 Rise Set
Actual Time 7:53 AM EST 5:00 PM EST
Civil Twilight 7:20 AM EST 5:32 PM EST
Nautical Twilight 6:45 AM EST 6:08 PM EST
Astronomical Twilight 6:10 AM EST 6:42 PM EST
Moon 10:53 PM EST (12/4) 11:40 AM EST (12/4)
Length of Visible Light 10h 11m
Length of Day
9h 06m
Waning Gibbous, 69% of the Moon is Illuminated
Dec 4
Waning Gibbous
Dec 6
Last Quarter
Dec 13
New
Dec 20
First Quarter
Dec 28
Full

Hourly Weather History & Observations

Time (EST) Temp. Windchill Dew Point Humidity Pressure Visibility Wind Dir Wind Speed Gust Speed Precip Events Conditions
12:03 AM 64.4 °F - 55.4 °F 73% 29.80 in 10.0 mi SSW 17.3 mph 28.8 mph N/A   Mostly Cloudy
12:53 AM 64.4 °F - 55.4 °F 73% 29.80 in 10.0 mi SSW 20.7 mph 28.8 mph N/A   Overcast
1:53 AM 64.0 °F - 55.0 °F 73% 29.80 in 10.0 mi SSW 19.6 mph 27.6 mph N/A   Overcast
2:53 AM 63.0 °F - 55.0 °F 75% 29.83 in 10.0 mi SW 24.2 mph 31.1 mph N/A   Overcast
3:53 AM 60.1 °F - 57.0 °F 90% 29.83 in 10.0 mi WSW 17.3 mph - 0.01 in Rain Light Rain
4:10 AM 60.8 °F - 55.4 °F 82% 29.84 in 10.0 mi WSW 15.0 mph 23.0 mph 0.00 in   Overcast
4:53 AM 57.9 °F - 53.1 °F 84% 29.87 in 10.0 mi West 13.8 mph - 0.00 in   Overcast
5:07 AM 57.2 °F - 51.8 °F 82% 29.88 in 10.0 mi West 13.8 mph - N/A   Overcast
5:53 AM 54.0 °F - 46.9 °F 77% 29.90 in 10.0 mi WNW 11.5 mph - N/A   Partly Cloudy
6:53 AM 52.0 °F - 44.1 °F 74% 29.92 in 10.0 mi West 12.7 mph - N/A   Mostly Cloudy
7:53 AM 50.0 °F - 42.1 °F 74% 29.95 in 10.0 mi West 11.5 mph - N/A   Mostly Cloudy
8:53 AM 48.9 °F - 37.0 °F 64% 29.98 in 10.0 mi West 10.4 mph - N/A   Overcast
9:53 AM 48.9 °F - 37.9 °F 66% 29.97 in 10.0 mi WSW 9.2 mph - N/A   Overcast
10:53 AM 48.9 °F - 37.9 °F 66% 29.97 in 10.0 mi WSW 9.2 mph - N/A   Partly Cloudy
11:53 AM 50.0 °F - 37.0 °F 61% 29.95 in 10.0 mi WSW 11.5 mph - N/A   Clear
12:53 PM 50.0 °F - 35.1 °F 57% 29.96 in 10.0 mi West 15.0 mph - N/A   Clear
1:53 PM 50.0 °F - 37.0 °F 61% 29.95 in 10.0 mi WSW 13.8 mph - N/A   Clear
2:53 PM 52.0 °F - 35.1 °F 53% 29.95 in 10.0 mi WSW 16.1 mph - N/A   Clear
3:53 PM 50.0 °F - 35.1 °F 57% 29.96 in 10.0 mi WSW 12.7 mph - N/A   Clear
4:53 PM 46.9 °F - 34.0 °F 61% 29.98 in 10.0 mi WSW 10.4 mph - N/A   Clear
5:53 PM 46.0 °F 39.9 °F 33.1 °F 61% 29.99 in 10.0 mi WSW 13.8 mph - N/A   Clear
6:53 PM 45.0 °F 38.9 °F 32.0 °F 60% 30.02 in 10.0 mi West 12.7 mph - N/A   Clear
7:53 PM 44.1 °F 37.1 °F 30.9 °F 60% 30.03 in 10.0 mi West 15.0 mph - N/A   Clear
8:53 PM 43.0 °F 36.4 °F 30.0 °F 60% 30.05 in 10.0 mi West 12.7 mph - N/A   Clear
9:53 PM 42.1 °F 34.5 °F 28.0 °F 58% 30.08 in 10.0 mi WNW 15.0 mph 25.3 mph N/A   Clear
10:53 PM 39.0 °F 32.3 °F 27.0 °F 62% 30.10 in 10.0 mi West 10.4 mph - N/A   Clear
11:53 PM 37.9 °F 28.5 °F 27.0 °F 65% 30.14 in 10.0 mi NNW 17.3 mph - N/A   Overcast